Highgate, VT

1:20 PM EDT on March 25, 2017 (GMT -0400)
Franklin County State

Weather History for KFSO - April, 2014

Change the Weather History Date:

Friday, April 11, 2014

  Actual Average (KPBG) Record (KPBG)
Temperature  
Mean Temperature 49 °F -  
Max Temperature 63 °F 47 °F 72 °F (2011)
Min Temperature 35 °F 30 °F 12 °F (1967)
Degree Days  
Heating Degree Days 16    
Moisture  
Dew Point 34 °F    
Average Humidity 53    
Maximum Humidity 86    
Minimum Humidity 21    
Precipitation  
Precipitation 0.00 in - - ()
Sea Level Pressure  
Sea Level Pressure 29.93 in    
Wind  
Wind Speed 7 mph (WSW)    
Max Wind Speed 12 mph    
Max Gust Speed 21 mph    
Visibility 10 miles    
Events Rain    
Averages and records for this station are not official NWS values.
T = Trace of Precipitation, MM = Missing Value Source: NWS Daily Summary

Daily Weather History Graph

Daily Weather History Graph

Search for Another Location

Airport or City:

Trip Planner

Search our weather history database for the weather conditions in past years. The results will help you decide how hot, cold, wet, or windy it might be!

Date:

Astronomy

Apr. 11, 2014 Rise Set
Actual Time 6:14 AM EDT 7:32 PM EDT
Civil Twilight 5:44 AM EDT 8:03 PM EDT
Nautical Twilight 5:08 AM EDT 8:39 PM EDT
Astronomical Twilight 4:29 AM EDT 9:18 PM EDT
Moon 4:02 PM EDT (4/11) 4:17 AM EDT (4/11)
Length of Visible Light 14h 18m
Length of Day
13h 17m
Waxing Gibbous, 87% of the Moon is Illuminated
Apr 11
Waxing Gibbous
Apr 15
Full
Apr 22
Last Quarter
Apr 29
New
May 6
First Quarter

Hourly Weather History & Observations

Time (EDT) Temp. Windchill Dew Point Humidity Pressure Visibility Wind Dir Wind Speed Gust Speed Precip Events Conditions
12:15 AM 58.5 °F - 30.2 °F 34% 29.74 in 10.0 mi South 10.4 mph 19.6 mph N/A   Overcast
12:35 AM 58.5 °F - 30.6 °F 35% 29.74 in 10.0 mi South 11.5 mph 20.7 mph N/A   Overcast
12:55 AM 58.5 °F - 31.1 °F 35% 29.76 in 10.0 mi SSW 11.5 mph 18.4 mph N/A   Overcast
1:15 AM 55.4 °F - 31.3 °F 40% 29.79 in 10.0 mi West 10.4 mph 19.6 mph N/A Rain Light Rain
1:35 AM 50.9 °F - 36.7 °F 58% 29.79 in 10.0 mi SSW 6.9 mph 17.3 mph N/A Rain Light Rain
1:55 AM 50.9 °F - 34.7 °F 54% 29.78 in 10.0 mi SSW 6.9 mph - N/A   Light Drizzle
2:15 AM 50.9 °F - 34.3 °F 53% 29.78 in 10.0 mi SSW 9.2 mph 18.4 mph N/A   Light Drizzle
2:35 AM 51.3 °F - 34.9 °F 54% 29.79 in 10.0 mi SW 6.9 mph - N/A   Light Drizzle
2:55 AM 50.9 °F - 38.1 °F 62% 29.82 in 10.0 mi WSW 6.9 mph 16.1 mph N/A Rain Rain
3:15 AM 46.6 °F - 38.3 °F 73% 29.82 in 10.0 mi Calm Calm - N/A Rain Light Rain
3:35 AM 48.4 °F - 43.2 °F 82% 29.83 in 10.0 mi SW 3.5 mph - N/A Rain Light Rain
3:55 AM 48.4 °F - 43.9 °F 84% 29.84 in 10.0 mi South 3.5 mph - N/A   Overcast
4:15 AM 48.4 °F - 44.2 °F 86% 29.84 in 10.0 mi South 3.5 mph - N/A   Overcast
4:35 AM 48.4 °F - 44.2 °F 86% 29.84 in 10.0 mi South 3.5 mph - N/A   Overcast
4:55 AM 48.4 °F - 43.9 °F 84% 29.84 in 10.0 mi South 4.6 mph - N/A   Overcast
5:15 AM 48.4 °F - 43.9 °F 84% 29.85 in 10.0 mi South 5.8 mph - N/A   Mostly Cloudy
5:35 AM 48.4 °F - 43.2 °F 82% 29.86 in 10.0 mi South 5.8 mph - N/A   Scattered Clouds
5:55 AM 48.4 °F - 42.6 °F 80% 29.88 in 10.0 mi SSW 3.5 mph - N/A   Clear
6:15 AM 46.4 °F 44.3 °F 40.6 °F 80% 29.88 in 10.0 mi SSW 4.6 mph - N/A   Clear
6:35 AM 45.9 °F 42.3 °F 39.7 °F 79% 29.89 in 10.0 mi South 6.9 mph - N/A   Clear
6:55 AM 45.9 °F 43.6 °F 39.4 °F 78% 29.90 in 10.0 mi South 4.6 mph - N/A   Clear
7:15 AM 45.9 °F 43.6 °F 39.7 °F 79% 29.91 in 10.0 mi SSW 4.6 mph - N/A   Clear
7:35 AM 48.4 °F - 41.9 °F 78% 29.91 in 10.0 mi South 5.8 mph - N/A   Clear
7:55 AM 50.9 °F - 43.2 °F 75% 29.92 in 10.0 mi SSW 10.4 mph - N/A   Clear
8:15 AM 50.9 °F - 41.0 °F 69% 29.92 in 10.0 mi SSW 6.9 mph - N/A   Clear
8:35 AM 50.9 °F - 40.5 °F 67% 29.93 in 10.0 mi SSW 6.9 mph - N/A   Clear
8:55 AM 52.7 °F - 40.8 °F 64% 29.94 in 10.0 mi SSW 8.1 mph - N/A   Clear
9:15 AM 55.9 °F - 42.3 °F 60% 29.95 in 10.0 mi SW 6.9 mph - N/A   Clear
9:35 AM 55.9 °F - 41.4 °F 58% 29.95 in 10.0 mi SW 8.1 mph - N/A   Clear
10:15 AM 57.7 °F - 39.6 °F 51% 29.95 in 10.0 mi SW 10.4 mph 16.1 mph N/A   Scattered Clouds
10:35 AM 58.5 °F - 37.6 °F 46% 29.95 in 10.0 mi SW 9.2 mph - N/A   Scattered Clouds
10:55 AM 58.5 °F - 36.5 °F 44% 29.95 in 10.0 mi SW 10.4 mph - N/A   Clear
11:15 AM 58.5 °F - 36.0 °F 43% 29.95 in 10.0 mi SW 9.2 mph - N/A   Scattered Clouds
11:35 AM 59.9 °F - 36.7 °F 42% 29.95 in 10.0 mi WSW 8.1 mph - N/A   Clear
11:55 AM 58.5 °F - 36.5 °F 44% 29.95 in 10.0 mi WNW 8.1 mph - N/A   Scattered Clouds
12:15 PM 58.8 °F - 35.2 °F 41% 29.95 in 10.0 mi West 5.8 mph - N/A   Clear
12:35 PM 60.6 °F - 35.4 °F 39% 29.95 in 10.0 mi NNW 4.6 mph - N/A   Clear
12:55 PM 61.0 °F - 31.6 °F 33% 29.95 in 10.0 mi NW 4.6 mph - N/A   Clear
1:15 PM 61.0 °F - 30.4 °F 32% 29.95 in 10.0 mi West 6.9 mph - N/A   Clear
1:35 PM 61.0 °F - 28.9 °F 30% 29.95 in 10.0 mi WNW 6.9 mph - N/A   Clear
1:55 PM 63.5 °F - 28.6 °F 27% 29.95 in 10.0 mi WNW 8.1 mph - N/A   Clear
2:15 PM 63.1 °F - 26.1 °F 25% 29.95 in 10.0 mi West 10.4 mph - N/A   Clear
2:35 PM 62.6 °F - 23.9 °F 23% 29.95 in 10.0 mi WNW 6.9 mph - N/A   Clear
2:55 PM 61.0 °F - 21.0 °F 21% 29.95 in 10.0 mi WNW 9.2 mph - N/A   Clear
3:15 PM 60.8 °F - 23.4 °F 24% 29.95 in 10.0 mi WNW 5.8 mph - N/A   Clear
3:35 PM 58.5 °F - 26.2 °F 29% 29.96 in 10.0 mi NNW 5.8 mph - N/A   Clear
3:55 PM 56.1 °F - 32.9 °F 41% 29.96 in 10.0 mi North 8.1 mph - N/A   Clear
4:15 PM 58.3 °F - 32.7 °F 38% 29.97 in 10.0 mi NNW 6.9 mph - N/A   Clear
4:35 PM 58.5 °F - 30.9 °F 35% 29.96 in 10.0 mi NW 6.9 mph - N/A   Clear
4:55 PM 58.5 °F - 30.9 °F 35% 29.96 in 10.0 mi NNW 8.1 mph - N/A   Clear
5:15 PM 58.6 °F - 29.3 °F 33% 29.97 in 10.0 mi NW 8.1 mph - N/A   Clear
5:35 PM 58.5 °F - 28.2 °F 32% 29.97 in 10.0 mi NW 4.6 mph - N/A   Clear
5:55 PM 58.5 °F - 27.7 °F 31% 29.97 in 10.0 mi NNW 5.8 mph - N/A   Clear
6:15 PM 55.9 °F - 27.1 °F 33% 29.98 in 10.0 mi NNW 4.6 mph - N/A   Clear
6:35 PM 56.1 °F - 28.4 °F 35% 29.99 in 10.0 mi North 5.8 mph - N/A   Clear
6:55 PM 55.9 °F - 30.2 °F 37% 29.99 in 10.0 mi North 4.6 mph - N/A   Clear
7:15 PM 51.8 °F - 28.8 °F 41% 29.99 in 10.0 mi NW 4.6 mph - N/A   Clear
7:35 PM 50.9 °F - 28.6 °F 42% 29.99 in 10.0 mi Calm Calm - N/A   Clear
7:55 PM 50.9 °F - 29.3 °F 43% 30.00 in 10.0 mi North 3.5 mph - N/A   Clear
8:15 PM 50.9 °F - 30.9 °F 46% 30.00 in 10.0 mi Calm Calm - N/A   Clear
8:35 PM 43.5 °F 41.9 °F 28.4 °F 55% 30.01 in 10.0 mi ESE 3.5 mph - N/A   Clear
8:55 PM 46.2 °F - 28.8 °F 51% 30.02 in 10.0 mi Calm Calm - N/A   Clear
9:15 PM 42.8 °F - 29.1 °F 58% 30.02 in 10.0 mi Calm Calm - N/A   Clear
9:35 PM 43.2 °F 41.5 °F 28.6 °F 56% 30.03 in 10.0 mi East 3.5 mph - N/A   Clear
9:55 PM 41.7 °F - 28.4 °F 59% 30.03 in 10.0 mi Calm Calm - N/A   Clear
10:15 PM 38.3 °F - 29.3 °F 70% 30.03 in 10.0 mi Calm Calm - N/A   Clear
10:35 PM 40.5 °F - 27.9 °F 61% 30.03 in 10.0 mi Calm Calm - N/A   Clear
10:55 PM 37.8 °F - 30.0 °F 74% 30.03 in 10.0 mi Calm Calm - N/A   Clear
11:15 PM 35.6 °F - 28.0 °F 74% 30.02 in 10.0 mi Calm Calm - N/A   Clear
11:35 PM 35.6 °F - 28.2 °F 75% 30.02 in 10.0 mi Calm Calm - N/A   Clear
11:55 PM 35.6 °F 32.8 °F 28.9 °F 77% 30.02 in 10.0 mi ESE 3.5 mph - N/A   Clear